Showing default

ANGOSAT 1, 43087

Orbit data source: Space-Track

ANGOSAT 1, 43087 is a payload satellite owned by GGPEN (AO) in GEO that was launched on Tue, 26 Dec 2017 UTC via a ZENIT-3SLBF launch vehicle from the Tyuratam Missile And Space Complex (TTMTR). Payload-class satellites include a variety of spacecraft equipped with specific instruments for various scientific and technological missions. These include communications satellites like Starlink; space stations such as the ISS; scientific satellites like the Hubble; Earth observation satellites from companies like Planet Labs, Umbra, and HawkEye 360; GPS; miniature CubeSats for education and research; and military/defense satellites.

Not visible in the next 10 days
Identifier
43087, 2017-086A
Orbit
GEO
Country
Flag of AOAO / AGO
Related business
Manufacturer
RKKE
Mission
Non-operational Civil Communications
Bus & Motor
YAMAL 100, Unknown motor
Mass
1,647 kg wet, ~1,400 kg dry
Launch date (UTC)
2017-12-26 (8 years ago)
Launch vehicle
ZENIT-3SLBF
Launch site
Tyuratam Missile And Space Complex (TTMTR)
Object type
Payload
Rocket body
Debris
Shape & HBR
Box + 2 Pan, 6.0 m
Radar Cross Section
11.377 m², Large (>1 m²)

Expand to show TLE details & history
Last TLE update: 13 hours ago

TLE from 13 hours ago
0 ANGOSAT 1
1 43087U 17086A   25352.85119937  .00000122  00000-0  00000-0 0  9999
2 43087   7.1275  69.3881 0021718 174.3527 210.7114  0.99375965 28941
Epoch: 2025-12-18T20:25Z
TLE epoch observation values (Epoch: 2025-12-18T20:25:43.625Z)
Latitude
3.02708°
Longitude
60.01794°
Altitude
36,118.53 km
Speed
3.06 km/s
True Right ascension
06h 16m 36s
True Declination
3° 01' 27"
Sunlit
Object was in daylight at epoch
Visualization orbit readout
Latitude
Unknown
Longitude
Unknown
Altitude
Unknown
Speed
Unknown
Apparent Right ascension
Unknown
Apparent Declination
Unknown
Sunlit
N/A
Visualization observer readout
Local Sidereal Time
08:22:52
Azimuth
Unknown
Elevation
Unknown
Doppler factor
Unknown
Orbital elements
Apogee altitude
36,132.776 km
Perigee altitude
35,948.526 km
Semi-major axis
42,418.788 km
Eccentricity
0.00217
Inclination
7.1275°
RAAN
69.3881°
Arg. of periapsis
174.3527°
True anomaly
210.58459°
Mean anomaly
210.7114°
Eccentric anomaly
210.64797°
Mean motion
0.24843 °/min
Orbital period
1,449.09 mins
BSTAR
0
Loading maneuver chart data...
Computing Atmospheric mass density...
Loading historical data...
Loading historical data...
Loading historical data...
Loading historical data...
Loading historical data...
Loading historical data...
Loading historical data...

Documentation

Showing up to 5 results
|